Regional Weather Roundup
Issued by NWS Tiyan, Guam

Home | Current Version | Previous Version | Text Only | Print | Product List | Glossary On
Versions: 1 2 3 4 5 6 7 8 9 10 11 12 13 14 15 16 17 18 19 20 21 22 23 24 25 26 27 28 29 30 31 32 33 34 35 36 37 38 39 40 41 42 43 44 45 46 47 48 49 50
000
ASGM40 PGUM 200312
RWRGUM
WEATHER ROUNDUP FOR THE MARIANAS
NATIONAL WEATHER SERVICE TIYAN GU
100 PM CHST FRI OCT 20 2017

GUZ001>004-200400-
MARIANA ISLANDS-

CITY           SKY/WX    TMP DP  RH WIND       PRES   REMARKS
GUAM AIRPORT   SUNNY     90  81  74 NW13      29.79F HX 108
ANDERSEN AFB   PTSUNNY   84  77  79 N9        29.80F HX  94
ROTA AIRPORT   MOSUNNY   84  77  79 N9        29.79F HX  94
TINIAN AP      MOSUNNY   86  77  74 NE12      29.76F HX  97
SAIPAN AP      MOSUNNY   90  79  70 NE14      29.76F HX 105

$$




USA.gov is the U.S. government's official web portal to all federal, state and local government web resources and services.